Location: Escondida
(34.1015°N, 106.8964°W)
Time: 13:45:23
(UTC+00:00)

STARLINK-35702 - Pass Details

Date: 11 December 2025
Orbit: 482 x 484 km, 43.0° (Epoch: 19 January)

Event Time Altitude Azimuth Distance (km) Brightness Sun altitude
Exits shadow 12:22:07 29° 206° (SSW) 913 3.6 -20.4°
Maximum altitude 12:23:43 50° 146° (SE) 616 3.1 -20.0°
Drops below altitude 10° 12:27:23 10° 70° (ENE) 1,660 5.8 -19.3°
Sets 12:29:37 0° 65° (ENE) 2,545 6.8 -18.9°
